Sei sulla pagina 1di 13

Estación : PAMPA UMALZO (TITIJONES) Estación :

Departamento :  TACNA Provincia :  CANDARAVE Distrito :  CANDARAVE Departamento : 

Latitud :  16°52'30'' Longitud :  70°25'25'' Altitud :  4609 msnm. Latitud : 

Tipo :  CO - Meteorológica Código :  116052 Tipo : 


PRECIPITACIÓN
TEMPERATURA (°C) (mm/día)
HUMEDAD
AÑO / MES / DÍA MAX MIN RELATIVA (%) TOTAL AÑO / MES / DÍA

8/1/2019 10.6 -12 89.2 0 1/1/2020

8/2/2019 11 -16.6 88.5 0 1/2/2020

8/3/2019 12.4 -16.4 86.1 0 1/3/2020

8/4/2019 13.2 -16 82.9 0 MÁXIMA 1/4/2020

8/5/2019 13 -15.6 84.5 0 1/5/2020

8/6/2019 13.4 -17.6 87.7 0 MÍNIMA 1/6/2020

8/7/2019 12.6 -17.8 86.7 0 1/7/2020

8/8/2019 11.8 -18 88.9 0 1/8/2020

8/9/2019 12 -19.4 86.5 0 1/9/2020

8/10/2019 11.4 -18.6 90.2 0 1/10/2020

8/11/2019 11.2 -15.4 88.5 0 1/11/2020

8/12/2019 13 -14.6 90.3 0 1/12/2020

8/13/2019 12.4 -16.4 87 0 1/13/2020

8/14/2019 12 -14 88.5 0 1/14/2020

8/15/2019 12.6 -13.4 87 0 1/15/2020

8/16/2019 12 -13.8 89.9 0 1/16/2020

8/17/2019 12.4 -11.4 89.5 0 1/17/2020

8/18/2019 12 -12.4 86.4 0 1/18/2020

8/19/2019 11.8 -11.8 89.8 0 1/19/2020

8/20/2019 13.6 -14 85 0 1/20/2020

8/21/2019 13.2 -9.2 84.4 0 1/21/2020

8/22/2019 12.4 -10.8 86.4 0 1/22/2020

8/23/2019 13 -5.4 78 0 1/23/2020

8/24/2019 10.6 -10 83.2 0 1/24/2020

8/25/2019 10.2 -15.6 81 0 1/25/2020

8/26/2019 11.6 -15.8 77.7 0 1/26/2020

8/27/2019 12 -12.4 79.2 0 1/27/2020

8/28/2019 12.6 -6.2 86.9 0 1/28/2020

8/29/2019 13.2 -12.2 80.5 0 1/29/2020

8/30/2019 12.2 -11.2 85.1 0 1/30/2020

8/31/2019 11.2 -12.6 84.2 0 1/31/2020

Estación : PAMPA UMALZO (TITIJONES) Estación :

Departamento :  TACNA Provincia :  CANDARAVE Distrito :  CANDARAVE Departamento : 

Latitud :  16°52'30'' Longitud :  70°25'25'' Altitud :  4609 msnm. Latitud : 

Tipo :  CO - Meteorológica Código :  116052 Tipo : 


PRECIPITACIÓN
TEMPERATURA (°C) (mm/día)
HUMEDAD
AÑO / MES / DÍA RELATIVA (%) AÑO / MES / DÍA
HUMEDAD
AÑO / MES / DÍA MAX MIN RELATIVA (%) TOTAL AÑO / MES / DÍA

7/1/2019 10.2 -9 83.7 0 12/1/2019

7/2/2019 10.6 -11.2 83.4 0 12/2/2019

7/3/2019 11 -11.4 83.9 0 12/3/2019

7/4/2019 10.4 -16.2 76.6 0 12/4/2019

7/5/2019 12.8 -12.2 87.8 0 12/5/2019

7/6/2019 10.8 -11 86.6 0 MINIMA 12/6/2019

7/7/2019 12 -9.4 85 0 12/7/2019

7/8/2019 11.6 -10.6 81.3 0 12/8/2019

7/9/2019 12.4 -9.4 85.2 0 12/9/2019

7/10/2019 13 -12.6 85.2 0 12/10/2019

7/11/2019 11.2 -14.4 83.3 0 12/11/2019

7/12/2019 10.8 -13.6 84.6 0 12/12/2019

7/13/2019 11 -14 81.6 0 12/13/2019

7/14/2019 10.6 -13.4 85.2 0 12/14/2019

7/15/2019 10 -12.8 87.2 0 12/15/2019

7/16/2019 9.6 -13.6 84.7 0 12/16/2019

7/17/2019 8.4 -9.8 81.4 0 12/17/2019

7/18/2019 9.6 -5 85.3 0 12/18/2019

7/19/2019 9.8 -11.4 83.8 0 12/19/2019

7/20/2019 9.4 -7.2 87 0 12/20/2019

7/21/2019 8.6 -9 85 0 12/21/2019

7/22/2019 8.4 -13 85.1 0 12/22/2019

7/23/2019 8 -3 90 1.6 MÁXIMA 12/23/2019

7/24/2019 4.6 -3.6 90.7 0 12/24/2019

7/25/2019 6.6 -8.4 83.1 0 12/25/2019

7/26/2019 9.6 -18.8 86.5 0 12/26/2019

7/27/2019 11 -13.2 83.5 0 12/27/2019

7/28/2019 10.4 -13.6 87.1 0 12/28/2019

7/29/2019 10 -15.2 85.2 0 12/29/2019

7/30/2019 13.4 -10.8 81.5 0 12/30/2019

7/31/2019 12 -13.2 85.6 0 12/31/2019

SUMA
92.1
Estación : PAMPA UMALZO (TITIJONES) Estación : PAMPA UMALZO (TITIJONES)

TACNA Provincia :  CANDARAVE Distrito :  CANDARAVE Departamento :  TACNA Provincia : 

16°52'30'' Longitud :  70°25'25'' Altitud :  4609 msnm. Latitud :  16°52'30'' Longitud : 

CO - Meteorológica Código :  116052 Tipo :  CO - Meteorológica Código : 


PRECIPITACIÓN
TEMPERATURA (°C) (mm/día) TEMPERATURA (°C)
HUMEDAD
MAX MIN RELATIVA (%) TOTAL AÑO / MES / DÍA MAX MIN

8.2 2.2 90.7 8.5 11/1/2019 15.2 -7.4

11 1.2 92.6 19.9 MÁXIMA 11/2/2019 14 -3.2

10 -1 94.3 13 11/3/2019 14.6 -4.6

9.2 0.4 89.1 13.5 11/4/2019 14.4 -5

5.6 -0.6 91.3 5.1 11/5/2019 14 -4.4

5.8 -3.4 90.9 0.2 11/6/2019 13.2 -5.2

6.4 -2.6 86.9 0 11/7/2019 14.6 -5.4

10 -6.8 76.4 0 11/8/2019 13.4 -4.2

9.8 -5.6 81.2 0 11/9/2019 12.8 -6.6

10.4 -5 84.6 0.2 11/10/2019 13.4 -4.6

11.6 1 88.4 0 MÍNIMA 11/11/2019 12 -0.4

12.2 2.2 86.7 6.8 11/12/2019 12.2 -3

12 1.4 89.6 11.1 11/13/2019 10.6 -6.2

11.6 S/D 94.2 13.2 11/14/2019 12.8 -10

9.8 -1 92.3 4 11/15/2019 12.2 -4.4

11.8 0.6 86.5 0.4 11/16/2019 10.4 -6.2

12.2 2.4 88.7 0 11/17/2019 10 -6.4

11.6 2 87.7 0.8 11/18/2019 14.2 -6

10.8 0 92.5 1.8 11/19/2019 11 -3.2

9.4 -0.8 92.6 3.9 11/20/2019 12.4 1

9 0.8 88.6 8.4 11/21/2019 11.4 -2.6

10.6 1.8 93.5 9.8 11/22/2019 11.8 -2.6

11.4 0.4 93.3 1.1 11/23/2019 10.6 -4

11 1.2 92.2 0.2 11/24/2019 14.2 -1.2

13.2 -1 95.5 11.3 11/25/2019 11.2 -2

12 -1.4 92 0.2 11/26/2019 12.6 -2.2

11.6 -0.4 94.2 0.7 11/27/2019 12.8 -2.6

9.8 -0.8 92.6 0 11/28/2019 12.4 -3.8

10.2 -4.2 90.2 1.8 11/29/2019 12.8 -8.6

10 -4 93 0.2 11/30/2019 13.6 -7.8

10.6 -3.6 91.2 0

Estación : PAMPA UMALZO (TITIJONES) Estación : PAMPA UMALZO (TITIJONES)

TACNA Provincia :  CANDARAVE Distrito :  CANDARAVE Departamento :  TACNA Provincia : 

16°52'30'' Longitud :  70°25'25'' Altitud :  4609 msnm. Latitud :  16°52'30'' Longitud : 

CO - Meteorológica Código :  116052 Tipo :  CO - Meteorológica Código : 


PRECIPITACIÓN
TEMPERATURA (°C) (mm/día) TEMPERATURA (°C)
HUMEDAD
RELATIVA (%) AÑO / MES / DÍA
HUMEDAD
MAX MIN RELATIVA (%) TOTAL AÑO / MES / DÍA MAX MIN

13 -3.4 75.5 0 3/1/2020 11.2 0.8

13.4 -3.2 82.5 0 3/2/2020 11.6 0.6

11 -3 74.1 0 MINIMA 3/3/2020 11 -3

11.4 -10.4 68.2 0 3/4/2020 12.2 1.8

12 -5.6 76.9 0 3/5/2020 13.4 -2.6

11.2 -10 83.6 0 3/6/2020 12.8 -3.2

12 -8.2 84.6 0 3/7/2020 13.2 -1.6

12.6 -5.2 78 0 3/8/2020 11.8 -1

13 -10 75 0 3/9/2020 11 -3.4

14.2 -11 71.1 0 3/10/2020 10.2 -1.2

14 -11.4 71.6 0 3/11/2020 10.8 -2.8

12.6 -8.6 73.8 0 3/12/2020 10 -0.6

15.2 -9.4 68.3 0 3/13/2020 11 -2

13.4 -5 S/D 0 3/14/2020 12.4 -1.2

13.8 -6.2 68 0 3/15/2020 11.6 -0.4

13 -9 75.9 0 3/16/2020 10 -0.6

13.8 -9.4 66.6 0 3/17/2020 10.6 0.2

14.2 -8 76.9 0 3/18/2020 11 -0.8

13.4 -9.2 70.8 0 3/19/2020 9.8 1

13 -5.2 60.9 0 3/20/2020 10.2 -1.2

14.2 -10 62.8 0 3/21/2020 11 -1.8

12.4 -8 81 0 3/22/2020 12 -1.4

11 -10.4 77.3 0 3/23/2020 13.6 0.6

12.2 -2 79.1 0 3/24/2020 12 0.2

13.6 -6.2 90.8 0.6 3/25/2020 13 -1.4

11.8 -2.8 95.5 11.6 MÁXIMA 3/26/2020 13.4 -2.2

10.2 1.6 91.9 2.3 3/27/2020 10.6 -1.2

11.6 -2.8 88.5 0 3/28/2020 10.2 -2.8

11.4 -6.2 86.1 0 3/29/2020 11 -2.6

10.4 -6.6 81.7 0 3/30/2020 12 1

11 -1.8 87.2 0.7 3/31/2020 11.4 0.8

RESPUESTAS
PRECIPITACIÓN MÁXIMA TEMPERATURAS MÁXIMAS
19.9 mm/día ENERO 310.6
PRECIPITACIÓN MÍNIMA FEBRERO 318.4
0 mm/día MARZO 356
PRECIPITACIÓN PROMEDIO ABRIL 352.2
7.675 mm/día MAYO 364.6
JUNIO 352.4
JULIO 317.8
AGOSTO 376.6
SETIEMBRE 365.8
OCTUBRE 409.4
NOVIEMBRE 380.8
DICIEMBRE 390
Estación : PAMPA UMALZO (TITIJONES) Estación : PAMPA UMALZO (TITIJONES)

CANDARAVE Distrito :  CANDARAVE Departamento :  TACNA Provincia :  CANDARAVE

70°25'25'' Altitud :  4609 msnm. Latitud :  16°52'30'' Longitud :  70°25'25''

116052 Tipo :  CO - Meteorológica Código :  116052


PRECIPITACIÓN
(mm/día) TEMPERATURA (°C)
HUMEDAD
HUMEDAD RELATIVA (%) TOTAL AÑO / MES / DÍA MAX MIN RELATIVA (%)

79.7 4.5 9/1/2019 12 -14.2 86.1

75.6 0 9/2/2019 11 -13.2 85.2

76.3 0 9/3/2019 11.4 -12.8 87.5

78.7 0 9/4/2019 10.6 -5.8 87.9

82.1 0 9/5/2019 9.8 -6.4 89.8

69.4 0 9/6/2019 10 -7.6 88.3

73.2 0 9/7/2019 9 -11 88.3

71.2 0 MINIMA 9/8/2019 9.4 -7.2 89.8

78.8 0 9/9/2019 10.6 -17.4 82.8

76.5 0 9/10/2019 11 -16.6 82

88.8 0 9/11/2019 10.4 -12.8 83.8

87.4 0 9/12/2019 11.2 -7.6 85.3

75.1 0 9/13/2019 13 -6.2 84.8

83.2 0 9/14/2019 13.4 -8.4 78.5

81.8 0 9/15/2019 13 -9.2 81.9

82.5 0 9/16/2019 13.2 -6.8 83.5

71.7 0 9/17/2019 12.8 -8 87.3

72.7 0 9/18/2019 13.6 -7.8 87.7

79.8 3.5 9/19/2019 11.6 -9.8 82.3

86.9 1.1 9/20/2019 13.2 -11.4 76.9

83 3.1 9/21/2019 12.6 -5.2 74.4

84.6 0 9/22/2019 13.6 -5.6 79.1

85.6 7.6 9/23/2019 14.2 -5 87.8

85.7 12.2 MÁXIMA 9/24/2019 13.8 -6.2 85

86.1 0 9/25/2019 13.6 -6.4 79.6

77.4 0 9/26/2019 13 -11.2 87.9

81.5 0 9/27/2019 14.2 -10.4 86.9

77 0 9/28/2019 14.6 -8.2 82.5

78.4 0 9/29/2019 15.4 -9.4 82.5

75.3 0 9/30/2019 10.6 -11 86.1

Estación : PAMPA UMALZO (TITIJONES)

Estación : PAMPA UMALZO (TITIJONES) Departamento :  TACNA Provincia :  CANDARAVE

CANDARAVE Distrito :  CANDARAVE Latitud :  16°52'30'' Longitud :  70°25'25''

70°25'25'' Altitud :  4609 msnm. Tipo :  CO - Meteorológica Código :  116052

116052 TEMPERATURA (°C)


PRECIPITACIÓN HUMEDAD
(mm/día) AÑO / MES / DÍA MAX MIN RELATIVA (%)

HUMEDAD RELATIVA (%)


HUMEDAD RELATIVA (%) TOTAL 5/1/2020 12.6 -3.4 88.7

95.6 0 5/2/2020 12.4 -3.8 88

95.1 0 5/3/2020 12 -1.4 90

89.8 0 MINIMA 5/4/2020 12.4 -1.2 88.2

90.2 0 5/5/2020 12.2 -4 87.7

90.4 0 5/6/2020 12 -6.8 85.5

87.6 1 5/7/2020 12.8 -7 89.7

89.2 0 5/8/2020 13.4 -7.2 88.2

90.3 3.6 5/9/2020 14 -7.6 89.1

94.7 10.9 5/10/2020 13.8 -7.2 87.5

90.1 7.4 5/11/2020 11 -9.2 81.1

93.5 0 5/12/2020 11.4 -11 84.5

91.8 5.3 5/13/2020 11 -11.2 86.8

93.2 15 MÁXIMA 5/14/2020 11.6 -9.8 88.8

93.5 2.6 5/15/2020 11 -12 90.1

92.2 4.7 5/16/2020 10.4 -12 88.3

92.8 6.8 5/17/2020 10 -11 83.3

92.4 4.8 5/18/2020 11.4 -11.8 79.3

91 3.2 5/19/2020 10.6 -10.6 88.7

94.2 3.1 5/20/2020 10.2 -11.4 88.8

93.5 5.4 5/21/2020 10.8 -8.4 85.8

93.2 0.7 5/22/2020 10 -11.8 85

93.7 1 5/23/2020 11 -11.6 85.7

91.3 0.4 5/24/2020 12.6 -11 82.9

91 0.9 5/25/2020 13.4 -12.4 84

92.7 0.2 5/26/2020 13.8 -12.8 83

94.6 0.8 5/27/2020 13 -11.6 82.8

92.3 0 5/28/2020 11.8 -11 83.2

92.4 7.6 5/29/2020 11.4 -10.6 80.3

92.4 3 5/30/2020 10.8 -12.4 77.9

86.9 0 5/31/2020 9.8 -10.8 79.8

93.6 2.2

TEMPERATURAS MÍNIMAS
-24.6
-16.6
-32
-140.8
-284
-379.8
-350
-426.6
-278.8
-292.8
-132.8
-206.6
LZO (TITIJONES) Estación : PAMPA UMALZO (TITIJONES)

Distrito :  CANDARAVE Departamento :  TACNA Provincia :  CANDARAVE Distrito :  CANDARAVE

Altitud :  4609 msnm. Latitud :  16°52'30'' Longitud :  70°25'25'' Altitud :  4609 msnm.

Tipo :  CO - Meteorológica Código :  116052


PRECIPITACIÓN PRECIPITACIÓN
(mm/día) TEMPERATURA (°C) (mm/día)
HUMEDAD
TOTAL AÑO / MES / DÍA MAX MIN RELATIVA (%) TOTAL

0 6/1/2020 11.2 -10.4 88.6 0

0 6/2/2020 10 -14.6 90 0

0 6/3/2020 9.6 -15.4 87.7 0 MINIMA


0.1 6/4/2020 10 -12.6 88.2 0

0 6/5/2020 10.6 -10.2 87.3 0

0 6/6/2020 10 -11.6 87.7 0

0 6/7/2020 12.4 -11.2 86.5 0 MAXIMA


0 6/8/2020 12.6 -10 83.5 0

0 6/9/2020 12.2 -10.4 82.8 0

0 6/10/2020 12.8 -10 84.2 0

0 6/11/2020 13.6 -8.8 84.3 0

0 6/12/2020 13.2 -9.8 88.8 0

0 6/13/2020 13.4 -10.6 86.7 0

0 6/14/2020 13 -10.8 87.7 0

0 6/15/2020 12.6 -11 86.1 0

0 6/16/2020 11.6 -10.6 86.2 0

0 6/17/2020 11.8 -11 86.8 0

0 6/18/2020 13.4 -14.4 82.1 0

0 6/19/2020 14 -12.8 82.2 0

0 6/20/2020 13.2 -12.6 84.7 0

0.8 MÁXIMA 6/21/2020 12.4 -11.8 85.9 0

0 6/22/2020 12.6 -12.2 85.8 0

0 6/23/2020 11.4 -14.6 87.8 0

0 6/24/2020 12 -15.4 87.1 0

0 6/25/2020 10.2 -14.6 89.3 0

0 6/26/2020 10.6 -14.2 89.7 0

0 6/27/2020 10.4 -17.6 87.3 0

0 6/28/2020 10.8 -17.2 85.3 0

0 6/29/2020 10.2 -16.6 83.6 0

0 6/30/2020 10.6 -16.8 86.4 0

LZO (TITIJONES) Estación : PAMPA UMALZO (TITIJONES)

Distrito :  CANDARAVE Departamento :  TACNA Provincia :  CANDARAVE Distrito :  CANDARAVE

Altitud :  4609 msnm. Latitud :  16°52'30'' Longitud :  70°25'25'' Altitud :  4609 msnm.

Tipo :  CO - Meteorológica Código :  116052


PRECIPITACIÓN PRECIPITACIÓN
(mm/día) TEMPERATURA (°C) (mm/día)
HUMEDAD
TOTAL AÑO / MES / DÍA MAX MIN RELATIVA (%) TOTAL
0 4/1/2020 10 0.2 89.6 1.3

0 4/2/2020 13 0 92.7 0 MINIMA


0 4/3/2020 12.6 0.4 89.6 0

0 4/4/2020 11.4 0.2 92.3 1.6

0 4/5/2020 10.6 -0.2 90 0

0 4/6/2020 13.6 -2.4 89 0

0 4/7/2020 13 -0.8 89.6 0.4

0 MÁXIMA 4/8/2020 13.4 -4 90.9 0

0 4/9/2020 11.6 -2.4 89.3 0

0 4/10/2020 11 -4.4 88.3 0

0 4/11/2020 12.6 -7.4 85.6 0

0 4/12/2020 13.2 -9 89 0

0 4/13/2020 10.6 -9.4 89.9 0

0 4/14/2020 12.4 -10.6 90.3 0

0 4/15/2020 11.2 -11 84.4 0

0 4/16/2020 12 -10.6 86.6 0

0 4/17/2020 10.4 -7.2 84.7 0

0 4/18/2020 11.2 -6.8 85.6 0.3

0 4/19/2020 9.6 -2.8 90.2 0.3

0 4/20/2020 10.6 -1.6 88.3 0

0 4/21/2020 11.2 -4.6 83 0

0 4/22/2020 11.8 -7 86.3 0

0 4/23/2020 11 -6.6 82.9 0

0 4/24/2020 11.6 -6.2 85.7 0

0 4/25/2020 11.8 -5.8 88.3 0

0 4/26/2020 11.4 -5.2 89.6 0

0 4/27/2020 12.2 -1.4 90 4.7 MAXIMA


0 4/28/2020 11.6 -4.6 90.5 0

0 4/29/2020 13 -6.2 87.6 0

0 4/30/2020 12.6 -3.4 84.9 3.4

0
Estación : PAMPA UMALZO (TITIJONES)

Departamento :  TACNA Provincia :  CANDARAVE Distrito :  CANDARAVE

Latitud :  16°52'30'' Longitud :  70°25'25'' Altitud :  4609 msnm.

Tipo :  CO - Meteorológica Código :  116052


PRECIPITACIÓN
TEMPERATURA (°C) (mm/día)
HUMEDAD
AÑO / MES / DÍA MAX MIN RELATIVA (%) TOTAL

10/1/2019 10.4 -2.6 84.7 0

10/2/2019 12 -5.2 89.4 0

10/3/2019 12.4 -8.6 86.5 0

10/4/2019 12.2 -8 85 0 MINIMA


10/5/2019 13 -11.8 89.6 0

10/6/2019 12.4 -14.6 83.6 0

10/7/2019 13.2 -16.2 87.5 0

10/8/2019 14 -17 87.3 0

10/9/2019 12.2 -10.4 86.3 0

10/10/2019 13.6 -10 86.3 0

10/11/2019 14.4 -13.2 79.1 0

10/12/2019 14.6 -10.4 81.7 0

10/13/2019 14 -9.6 82.6 0

10/14/2019 10 -9.4 84.5 0

10/15/2019 13.4 -10.2 82.5 0

10/16/2019 13 -8.4 79.4 0

10/17/2019 14.2 -11.2 71.6 0

10/18/2019 11 -3.6 86.1 7.2 MÁXIMA


10/19/2019 10.2 -4.8 91.4 0

10/20/2019 11 -7.2 72.6 0

10/21/2019 11.6 -11.6 84.3 0

10/22/2019 12 -12.6 77.9 0

10/23/2019 13.4 -12.2 72.3 0

10/24/2019 14.4 -8 71 0

10/25/2019 15.2 -9.2 70.4 0

10/26/2019 15.4 -9 78.8 0

10/27/2019 14.6 -9.4 69.8 0

10/28/2019 15 -8.8 72.7 0

10/29/2019 15.4 -8.2 74.1 0

10/30/2019 15.8 -5 72.1 0

10/31/2019 15.4 -6.4 75.5 0

Estación : PAMPA UMALZO (TITIJONES)

Departamento :  TACNA Provincia :  CANDARAVE Distrito :  CANDARAVE

Latitud :  16°52'30'' Longitud :  70°25'25'' Altitud :  4609 msnm.

Tipo :  CO - Meteorológica Código :  116052


PRECIPITACIÓN
TEMPERATURA (°C) (mm/día)
HUMEDAD
AÑO / MES / DÍA RELATIVA (%)
HUMEDAD
AÑO / MES / DÍA MAX MIN RELATIVA (%) TOTAL

2/1/2020 11 -1.6 91.1 0 MINIMA


2/2/2020 12.2 -4.2 89.1 0

2/3/2020 11.4 -3.8 91.2 5.1

2/4/2020 11 -5 93.2 0

2/5/2020 11.6 -3.2 92.1 0

2/6/2020 11.2 -2.8 90.9 1.8

2/7/2020 12 -3 90.2 0

2/8/2020 11.4 -2.2 96.1 11.1

2/9/2020 10.8 -1.8 95.6 5

2/10/2020 12.6 -2.2 91.1 8.6

2/11/2020 11.4 -1.4 93.1 8.3

2/12/2020 11 1 93 19.1 MÁXIMA


2/13/2020 10.2 0.2 94.8 8.2

2/14/2020 11.4 0.8 86.9 13.3

2/15/2020 12.2 -1 92.4 1.7

2/16/2020 11.4 2.2 92.9 12.1

2/17/2020 11 1.4 95.7 2.6

2/18/2020 12.6 0.8 90.9 0.2

2/19/2020 11.2 0.4 95.5 0.8

2/20/2020 10 1.2 95.8 7.9

2/21/2020 9.6 0 96.1 11.2

2/22/2020 10.2 0.8 95.6 12.9

2/23/2020 9.8 2.4 95.5 3

2/24/2020 9.4 1.8 96.3 2.3

2/25/2020 10 1.4 95.5 1

2/26/2020 9.6 -1.2 91.4 10.1

2/27/2020 10.2 0.4 95.5 0.8

2/28/2020 10.8 0.8 94.7 3.6

2/29/2020 11.2 1.2 95.4 7.6